sat.trackr.live / text

‹ back to catalog

LUDI TANCE 1-01B (L-SA*)

NORAD 51822 · 2022-018A

PAYLOAD ACTIVE UNKNOWN

§ Identity

Operator
Country
PRC
Launch date
2022-02-26
Launch site
JSC
Launch vehicle
Mass (kg)
RCS (m²)

External: N2YO · Heavens-Above · Gunter

§ Orbital elements

Epoch: 2026-05-25T03:44:29.416128Z

Period
96.75 min
Inclination
97.8087°
Eccentricity
0.0001589
Mean motion
14.88415244 rev/d
Perigee alt
601.8 km
Apogee alt
604.0 km
Semi-major
6,981.0 km
B*
6.0071e-5
RAAN
152.8985°
Arg perigee
91.0184°
Mean anomaly
269.1215°
Rev number
23,028

§ Raw data

LUDI TANCE 1-01B (L-SA*)1 51822U 22018A   26145.15589602  .00000503  00000+0  60071-4 0  99902 51822  97.8087 152.8985 0001589  91.0184 269.1215 14.88415244230285

JSON: /api/v1/satellites/51822 · /tle

For live sub-satellite position, see the globe view (requires WebGL).

§ Visibility from observer

Set your observer location to see the next 7 days of passes ≥ 10°. The values pass through the URL so the page stays shareable.

No JS? Fill the form by hand. The geolocation button needs JavaScript.

§ Radio — SatNOGS DB

ModeDescriptionDownlinkUplink
FM S-band telemetry 2.219 GHz

1 transmitter · refreshed weekly from db.satnogs.org